Flag for Germany Weather past 2 weeks in Mörfelden-Walldorf, Hesse, Germany

48 °F


Feels Like: 47 °F
Forecast: 48 / 65 °F
Wind: 3 mph from Southwest

Location: Frankfurt-M-Flughafen Airport

Current Time: Oct 4, 2015 at 11:44:11 PM

Latest Report: Oct 4, 2015 at 11:20 PM

Visibility: N/A

Pressure: 30.04 "Hg

Humidity: 100%

Dew point: 48 °F

Location of Mörfelden-WalldorfLocation

Historic Weather in Mörfelden-Walldorf — Graph


Mörfelden-Walldorf temperature yesterday

Maximum temperature yesterday: 68 °F (at 2:50 PM)
Minimum temperature yesterday: 46 °F (at 7:50 AM)
Average temperature yesterday: 57 °F

Past Weeks' High & Low Weather Summary

High68 °F (Sep 21, 4:20 PM)100% (Sep 20, 5:20 AM)30.60 "Hg (Sep 20, 5:20 AM)
Low43 °F (Oct 2, 6:20 AM)32% (Oct 1, 3:50 PM)29.59 "Hg (Sep 22, 4:20 PM)
Average56 °F70%30.19 "Hg
* Reported Sep 19 10:20 PM — Oct 4 10:20 PM, Mörfelden-Walldorf, Weather by CustomWeather, © 2015

Note: Actual official high and low records may vary slightly from our data, if they occured in-between our weather recording intervals... More about our weather records


Mörfelden-Walldorf weather history for previous 24 hours

Time TempWeatherWind HumidityBarometerVisibility
10:20 PM
Sun, Oct 4
50 °FFog.3 mph100%30.04 "HgN/A
9:50 PM50 °FFog.3 mph100%30.04 "HgN/A
9:20 PM52 °FFog.1 mph94%30.04 "HgN/A
8:50 PM52 °FFog.3 mph94%30.04 "HgN/A
8:20 PM54 °FLight fog.2 mph94%30.04 "HgN/A
7:50 PM54 °FFog.2 mph94%30.04 "HgN/A
7:20 PM55 °FFog.2 mph94%30.04 "HgN/A
6:50 PM59 °FPartly sunny.5 mph88%30.04 "HgN/A
6:20 PM61 °FPartly sunny.7 mph83%30.04 "HgN/A
5:50 PM61 °FPartly sunny.7 mph83%30.04 "HgN/A
5:20 PM61 °FPartly sunny.6 mph83%30.04 "HgN/A
4:50 PM59 °FBroken clouds.6 mph88%30.04 "HgN/A
4:20 PM61 °FBroken clouds.5 mph83%30.04 "HgN/A
3:50 PM61 °FBroken clouds.3 mph88%30.07 "HgN/A
3:20 PM59 °FBroken clouds.6 mph94%30.07 "HgN/A
2:50 PM59 °FBroken clouds.5 mph94%30.07 "HgN/A
2:20 PM59 °FPartly sunny.8 mph88%30.07 "HgN/A
1:50 PM57 °FPartly sunny.7 mph94%30.07 "Hg6 mi
1:20 PM55 °FLight rain. Partly sunny.6 mph100%30.07 "Hg4 mi
12:50 PM55 °FLight rain. Broken clouds.5 mph94%30.07 "Hg4 mi
12:20 PM55 °FLight rain. Broken clouds.3 mph94%30.07 "Hg4 mi
11:50 AM54 °FLight rain. Mostly cloudy.2 mph94%30.07 "Hg3 mi
11:20 AM54 °FLight rain. Partly sunny.3 mph94%30.07 "Hg5 mi
10:50 AM52 °FLight rain. Partly sunny.5 mph94%30.07 "Hg5 mi
10:20 AM52 °FLight rain. Partly sunny.5 mph94%30.07 "HgN/A
9:50 AM52 °FLight rain. Partly sunny.5 mph94%30.07 "HgN/A
9:20 AM50 °FLight rain. Broken clouds.5 mph100%30.07 "HgN/A
8:50 AM50 °FLight rain. Broken clouds.2 mph94%30.04 "HgN/A
8:20 AM48 °FLight rain. Partly cloudy.2 mph100%30.04 "HgN/A
7:50 AM48 °FLight rain. Partly cloudy.2 mph94%30.04 "HgN/A
7:20 AM48 °FLight rain. Partly cloudy.3 mph94%30.04 "HgN/A
6:20 AM46 °FClear.2 mph100%30.01 "Hg10 mi
5:50 AM46 °FClear.2 mph93%30.01 "Hg10 mi
5:20 AM46 °FClear.2 mph93%29.98 "Hg10 mi
4:50 AM46 °FClear.2 mph93%29.98 "Hg10 mi
4:20 AM46 °FClear.2 mph93%29.98 "Hg10 mi
3:50 AM46 °FFog.2 mph93%29.98 "HgN/A
3:20 AM46 °FClear.1 mph93%29.98 "Hg10 mi
2:50 AM48 °FClear.1 mph94%29.98 "Hg10 mi
2:20 AM46 °FClear.2 mph100%29.98 "Hg10 mi
1:50 AM46 °FFog.2 mph93%29.98 "HgN/A
1:20 AM48 °FFog.3 mph94%29.98 "HgN/A
12:50 AM48 °FFog.2 mph94%29.98 "HgN/A
11:20 PM
Sat, Oct 3
50 °FClear.1 mph94%29.95 "Hg10 mi
Weather by CustomWeather, © 2015

See weather overviewHow to use our weather pages